Satellite: AO-51
Catalog number: 28375
Epoch time:      05068.58742283
Element set:    0202
Inclination:      098.2254 deg
RA of node:       135.0418 deg
Eccentricity:    0.0084295
Arg of perigee:   171.2652 deg
Mean anomaly:     189.0052 deg
Mean motion:   14.40439834 rev/day
Decay rate:       1.07e-06 rev/day^2
Epoch rev:           03628
Checksum:              299

/EX
SB KEPS @ AMSAT  $ORB05069.W
Orbital Elements  05069.WEATHER

HR AMSAT ORBITAL ELEMENTS FOR WEATHER SATELLITES
FROM WA5QGD FORT WORTH,TX March 10, 2005
SEND SUBSCRIBE/UNSUBSCRIBE TO majordomo@amsat.org ONLY
BID: ORB05069.W
TO ALL RADIO AMATEURS BT

Satellite: NOAA-10
Catalog number: 16969
Epoch time:      05068.63941983
Element set:    0644
Inclination:      098.7642 deg
RA of node:       074.1590 deg
Eccentricity:    0.0013319
Arg of perigee:   065.6151 deg
Mean anomaly:     294.6416 deg
Mean motion:   14.27243676 rev/day
Decay rate:       -3.1e-07 rev/day^2
Epoch rev:           96089
Checksum:              333

Satellite: NOAA-11
Catalog number: 19531
Epoch time:      05068.57477550
Element set:    0496
Inclination:      098.8468 deg
RA of node:       156.5025 deg
Eccentricity:    0.0011132
Arg of perigee:   227.7436 deg
Mean anomaly:     132.2796 deg
Mean motion:   14.14747095 rev/day
Decay rate:       3.04e-06 rev/day^2
Epoch rev:           84884
Checksum:              326

Satellite: NOAA-12
Catalog number: 21263
Epoch time:      05067.17177447
Element set:    0986
Inclination:      098.6948 deg
RA of node:       058.3696 deg
Eccentricity:    0.0012982
Arg of perigee:   007.1818 deg
Mean anomaly:     352.9550 deg
Mean motion:   14.25451483 rev/day
Decay rate:       -4.5e-07 rev/day^2
Epoch rev:           71785
Checksum:              339

Satellite: MET-3/5
Catalog number: 21655
Epoch time:      05068.80911268
Element set:    0763
Inclination:      082.5524 deg
RA of node:       228.8448 deg
Eccentricity:    0.0014129
Arg of perigee:   120.8078 deg
Mean anomaly:     239.4434 deg
Mean motion:   13.16997483 rev/day
Decay rate:        5.1e-07 rev/day^2
Epoch rev:           65223
Checksum:              317

Satellite: MET-2/21
Catalog number: 22782
Epoch time:      05068.76271033
Element set:    0148
Inclination:      082.5512 deg
RA of node:       339.8585 deg
Eccentricity:    0.0023144
Arg of perigee:   045.5923 deg
Mean anomaly:     314.7135 deg
Mean motion:   13.83582992 rev/day
Decay rate:        2.8e-07 rev/day^2
Epoch rev:           58182
Checksum:              312

Satellite: OKEAN-4
Catalog number: 23317
Epoch time:      05068.63542443
Element set:    0571
Inclination:      082.5433 deg
RA of node:       350.2050 deg
Eccentricity:    0.0023960
Arg of perigee:   103.1784 deg
Mean anomaly:     257.2119 deg
Mean motion:   14.82085497 rev/day
Decay rate:       5.85e-06 rev/day^2
Epoch rev:           56116
Checksum:              289

Satellite: NOAA-14
Catalog number: 23455
Epoch time:      05068.27304480
Element set:    0514
Inclination:      099.1053 deg
RA of node:       114.9134 deg
Eccentricity:    0.0008413
Arg of perigee:   282.2996 deg
Mean anomaly:     077.7188 deg
Mean motion:   14.13542314 rev/day
Decay rate:       -4.7e-07 rev/day^2
Epoch rev:           52538
Checksum:              297

Satellite: SICH-1
Catalog number: 23657
Epoch time:      05068.72347511
Element set:    0375
Inclination:      082.5302 deg
RA of node:       130.9719 deg
Eccentricity:    0.0025864
Arg of perigee:   089.9595 deg
Mean anomaly:     270.4671 deg
Mean motion:   14.81105014 rev/day
Decay rate:       6.89e-06 rev/day^2
Epoch rev:           51323
Checksum:              307

Satellite: NOAA-15
Catalog number: 25338
Epoch time:      05068.89143839
Element set:    0957
Inclination:      098.5174 deg
RA of node:       080.2371 deg
Eccentricity:    0.0009766
Arg of perigee:   292.6166 deg
Mean anomaly:     067.3980 deg
Mean motion:   14.24492455 rev/day
Decay rate:        2.5e-07 rev/day^2
Epoch rev:           35461
Checksum:              337

Satellite: RESURS
Catalog number: 25394
Epoch time:      05068.93208314
Element set:    0099
Inclination:      098.5486 deg
RA of node:       140.9306 deg
Eccentricity:    0.0002429
Arg of perigee:   097.1913 deg
Mean anomaly:     262.9539 deg
Mean motion:   14.24053532 rev/day
Decay rate:      -3.13e-06 rev/day^2
Epoch rev:           34632
Checksum:              300

Satellite: FENGYUN1
Catalog number: 25730
Epoch time:      05068.63184688
Element set:    0366
Inclination:      098.6075 deg
RA of node:       074.3961 deg
Eccentricity:    0.0014806
Arg of perigee:   028.4495 deg
Mean anomaly:     331.7462 deg
Mean motion:   14.11791401 rev/day
Decay rate:       2.58e-06 rev/day^2
Epoch rev:           30046
Checksum:              304

Satellite: OKEAN-0
Catalog number: 25860
Epoch time:      05068.73297195
Element set:    0378
Inclination:      097.7689 deg
RA of node:       098.9512 deg
Eccentricity:    0.0002013
Arg of perigee:   134.5215 deg
Mean anomaly:     225.6126 deg
Mean motion:   14.73215893 rev/day
Decay rate:       2.31e-06 rev/day^2
Epoch rev:           30336
Checksum:              306

Satellite: NOAA-16
Catalog number: 26536
Epoch time:      05068.88826933
Element set:    0266
Inclination:      099.0026 deg
RA of node:       026.8203 deg
Eccentricity:    0.0010080
Arg of perigee:   352.8826 deg
Mean anomaly:     007.2253 deg
Mean motion:   14.12214090 rev/day
Decay rate:      -1.37e-06 rev/day^2
Epoch rev:           23004
Checksum:              273

